[[{"header":{"parameterUnit":"m.s-1","parameterCategory":1,"la1":30.2991,"la2":30.254,"lo1":-89.0895,"lo2":-89.0444,"dy":0.0017,"dx":0.0017,"nx":28,"ny":28,"refTime":"2024-10-06T09:00:00:Z","depth":0,"parameterNumber":2,"parameterNumberName":"U-component_of_WINDS"},"data":[0,0,0,0,0,0,0,0,0,0,0,0,0,0,0,0,0,0,0,0,0,0,0,0,0,0,0,0,0,0,0,0,0,0,0,0,0,0,0,0,0,0,0,0,0,0,0,0,0,0,0,0,0,0,0,0,0,0,-3.3723,-3.3723,0,-3.3782,-3.3783,-3.3783,-3.3727,-3.3725,-3.3722,-3.372,-3.3787,-3.3791,-3.3795,0,0,0,0,0,0,0,0,0,0,0,0,0,-3.357,-3.3573,-3.3723,-3.3724,-3.3724,-3.3782,-3.3783,-3.3784,-3.3727,-3.3725,-3.3722,-3.3719,-3.3786,-3.3791,-3.3795,0,0,0,0,0,0,0,0,0,0,0,0,0,-3.3634,-3.3574,-3.3723,-3.3703,-3.3702,-3.3782,-3.3783,-3.3784,-3.3728,-3.3725,-3.3721,-3.3718,-3.3784,-3.379,-3.3796,-3.39,0,0,-3.3814,-3.3816,0,0,0,0,0,0,0,0,-3.363,-3.3639,-3.3705,-3.3705,-3.3703,-3.3743,-3.3753,-3.3823,-3.3729,-3.3718,-3.372,-3.3716,-3.3776,-3.3782,-3.3801,-3.3903,-3.3906,-3.3814,-3.3818,-3.382,-3.3822,0,0,0,0,0,0,0,-3.3626,-3.3637,-3.3746,-3.3706,-3.3705,-3.3694,-3.37,-3.3766,-3.3766,-3.3719,-3.3715,-3.3722,-3.3775,-3.3795,-3.3802,-3.3907,-3.3814,-3.3819,-3.3823,-3.3825,-3.4105,-3.4109,0,0,0,0,0,0,-3.3623,-3.3633,-3.3745,-3.3748,-3.3657,-3.37,-3.3706,-3.3734,-3.3765,-3.3766,-3.3725,-3.372,-3.3787,-3.3795,-3.3804,-3.3933,-3.382,-3.3826,-3.3829,-3.4101,-3.4106,-3.411,0,0,0,0,0,0,-3.3619,-3.3633,-3.3742,-3.369,-3.3703,-3.3706,-3.3739,-3.3737,-3.3758,-3.3769,-3.377,-3.3746,-3.3785,-3.3796,-3.3878,-3.3934,-3.3828,-3.3834,-3.4096,-3.4103,-3.4108,-3.4188,0,0,0,0,0,0,-3.3615,-3.3632,-3.3669,-3.3691,-3.3706,-3.3812,-3.3742,-3.3741,-3.3767,-3.376,-3.3789,-3.3791,-3.3783,-3.3869,-3.3884,-3.3941,-3.3838,-3.4091,-3.4099,-3.4106,-3.4181,-3.4196,-3.421,0,0,0,0,0,-3.361,-3.3689,-3.3671,-3.3685,-3.3752,-3.3815,-3.3824,-3.3812,-3.3772,-3.3811,-3.382,-3.379,-3.3925,-3.3878,-3.3894,-3.3953,-3.4088,-3.4097,-3.4106,-3.4174,-3.4193,-3.4209,0,0,0,0,0,0,-3.3675,-3.3692,-3.3672,-3.376,-3.3787,-3.3805,-3.3854,-3.3831,-3.3871,-3.3863,-3.3849,-3.3856,-3.3943,-3.3956,-3.3903,-3.4059,-3.4001,-3.4013,-3.4048,-3.4066,-3.408,-3.4077,-3.3843,0,0,0,0,0,-3.37,-3.3747,-3.376,-3.3837,-3.3851,-3.3851,-3.3878,-3.3867,-3.3894,-3.3906,-3.392,-3.395,-3.4,-3.4033,-3.4079,-3.4182,-3.4191,-3.4231,-3.4245,-3.4257,-3.4269,-3.4331,-3.4351,-3.4139,-3.4139,-3.4139,0,0,-3.3751,-3.3766,-3.3797,-3.3851,-3.387,-3.3923,-3.3861,-3.3918,-3.3959,-3.3915,-3.3994,-3.4006,-3.4039,-3.4133,-3.4175,-3.4146,-3.433,-3.4269,-3.4278,-3.4283,-3.4342,-3.4362,-3.438,-3.4145,-3.4144,-3.4143,0,0,-3.3873,-3.3887,-3.3955,-3.3976,-3.4006,-3.4006,-3.4023,-3.4046,-3.4052,-3.413,-3.41,-3.415,-3.4234,-3.4261,-3.4286,-3.4423,-3.4399,-3.4438,-3.4515,-3.4575,-3.4592,-3.4607,-3.4661,-3.468,-3.445,-3.445,-3.445,0,-3.3934,-3.401,-3.3993,-3.4055,-3.4082,-3.4043,-3.4115,-3.4137,-3.4182,-3.4203,-3.4169,-3.4279,-3.4297,-3.4401,-3.4435,-3.4454,-3.4477,-3.4436,-3.459,-3.4605,-3.4619,-3.467,-3.469,-3.4455,-3.4454,-3.4454,-3.4453,0,-3.4086,-3.414,-3.4192,-3.4236,-3.4268,-3.4335,-3.4332,-3.4367,-3.4354,-3.4359,-3.4443,-3.4465,-3.4518,-3.4541,-3.4528,-3.4644,-3.4626,-3.4592,-3.4533,-3.4644,-3.4693,-3.4712,-3.4462,-3.446,-3.4459,-3.4457,0,0,-3.425,-3.4286,-3.4306,-3.4327,-3.4359,-3.4403,-3.447,-3.452,-3.4553,-3.4586,-3.4645,-3.472,-3.469,-3.4718,-3.4709,-3.4761,-3.4876,-3.4721,-3.4722,-3.4753,-3.5012,-3.504,-3.5063,-3.4859,-3.4862,-3.4865,-3.5011,0,-3.4376,-3.449,-3.4479,-3.4589,-3.4642,-3.4609,-3.4668,-3.4697,-3.4704,-3.4753,-3.4762,-3.4817,-3.477,-3.4788,-3.4838,-3.4851,-3.4928,-3.484,-3.4919,-3.4922,-3.4915,-3.5087,-3.5116,-3.5252,-3.5029,-3.5032,-3.5034,0,-3.4538,-3.4578,-3.4693,-3.4722,-3.4744,-3.4796,-3.4845,-3.489,-3.4924,-3.4926,-3.496,-3.4943,-3.5016,-3.4954,-3.5057,-3.4997,-3.5029,-3.5041,-3.5046,-3.5056,-3.4987,-3.5106,-3.5294,-3.5316,-3.5063,-3.506,-3.5058,0,-3.4653,-3.4734,-3.4815,-3.4834,-3.4868,-3.4907,-3.4924,-3.4954,-3.4987,-3.503,-3.5052,-3.5103,-3.5133,-3.5175,-3.5175,-3.5129,-3.5281,-3.5218,-3.529,-3.529,-3.5325,-3.5324,-3.5526,-3.5339,-3.5339,-3.5339,-3.5338,0,-3.4797,-3.487,-3.4867,-3.4917,-3.5,-3.4988,-3.5072,-3.5084,-3.5113,-3.5168,-3.5142,-3.5195,-3.5189,-3.5245,-3.5245,-3.5334,-3.5346,-3.5353,-3.5353,-3.5358,-3.5358,-3.5381,-3.5373,-3.5344,-3.5343,-3.5342,-3.5341,0,-3.4939,-3.4939,-3.5026,-3.5052,-3.5061,-3.5121,-3.5145,-3.5195,-3.5201,-3.5272,-3.5288,-3.5299,-3.5363,-3.5366,-3.544,-3.544,-3.555,-3.5537,-3.5539,-3.5538,-3.5611,-3.5606,-3.5838,-3.5871,-3.5659,-3.5661,-3.5663,0,-3.5033,-3.5088,-3.5121,-3.5156,-3.5175,-3.523,-3.5264,-3.5257,-3.5294,-3.5339,-3.5386,-3.5447,-3.5495,-3.56,-3.5617,-3.5675,-3.5667,-3.5744,-3.5675,-3.568,-3.5674,-3.5673,-3.5681,-3.5759,-3.5761,-3.5763,-3.5764,0,-3.5201,-3.5199,-3.5248,-3.5299,-3.534,-3.5379,-3.5416,-3.5447,-3.5444,-3.5488,-3.5553,-3.5591,-3.5667,-3.5731,-3.5788,-3.5809,-3.579,-3.5786,-3.5806,-3.5814,-3.5814,-3.582,-3.558,-3.5781,-3.5779,-3.5778,-3.5777,-3.5777,-3.5325,-3.5375,-3.5407,-3.5464,-3.5491,-3.5527,-3.5577,-3.559,-3.5643,-3.5704,-3.5697,-3.5771,-3.5809,-3.5883,-3.591,-3.597,-3.5944,-3.5973,-3.5981,-3.5989,-3.5999,-3.5801,-3.598,-3.5979,-3.5979,-3.5979,-3.5978,0,-3.5496,-3.5516,-3.5568,-3.5621,-3.5668,-3.5641,-3.5682,-3.5724,-3.5789,-3.5824,-3.5874,-3.5952,-3.6014,-3.6037,-3.6099,-3.6144,-3.6137,-3.6161,-3.616,-3.6167,-3.6016,-3.5994,-3.6166,-3.6166,-3.6166,-3.6166,-3.6166,-3.6166,-3.5591,-3.5676,-3.568,-3.578,-3.58,-3.5871,-3.5897,-3.5933,-3.5962,-3.6049,-3.6101,-3.6114,-3.6147,-3.6212,-3.6271,-3.6276,-3.6303,-3.6332,-3.6335,-3.6195,-3.6176,-3.6158,-3.6138,-3.6337,-3.6337,-3.648,-3.6482,-3.6483]},{"header":{"parameterUnit":"m.s-1","parameterCategory":1,"la1":30.2991,"la2":30.254,"lo1":-89.0895,"lo2":-89.0444,"dy":0.0017,"dx":0.0017,"nx":28,"ny":28,"refTime":"2024-10-06T09:00:00:Z","depth":0,"parameterNumber":3,"parameterNumberName":"V-component_of_WINDS"},"data":[0,0,0,0,0,0,0,0,0,0,0,0,0,0,0,0,0,0,0,0,0,0,0,0,0,0,0,0,0,0,0,0,0,0,0,0,0,0,0,0,0,0,0,0,0,0,0,0,0,0,0,0,0,0,0,0,0,0,-1.727,-1.7269,0,-1.7185,-1.7184,-1.7184,-1.7145,-1.7145,-1.7146,-1.7146,-1.7056,-1.7054,-1.7052,0,0,0,0,0,0,0,0,0,0,0,0,0,-1.7399,-1.7396,-1.727,-1.7269,-1.7268,-1.7186,-1.7184,-1.7183,-1.7145,-1.7145,-1.7146,-1.7146,-1.7057,-1.7054,-1.7051,0,0,0,0,0,0,0,0,0,0,0,0,0,-1.7331,-1.7396,-1.727,-1.7239,-1.7236,-1.7186,-1.7184,-1.7183,-1.7145,-1.7145,-1.7146,-1.7146,-1.7058,-1.7055,-1.7051,-1.7025,0,0,-1.704,-1.7038,0,0,0,0,0,0,0,0,-1.7335,-1.7326,-1.7245,-1.7241,-1.7237,-1.7176,-1.7197,-1.713,-1.7145,-1.718,-1.7146,-1.7146,-1.7096,-1.7089,-1.7073,-1.7021,-1.7017,-1.7039,-1.7037,-1.7035,-1.7034,0,0,0,0,0,0,0,-1.734,-1.733,-1.7237,-1.7244,-1.7239,-1.7229,-1.722,-1.7184,-1.7138,-1.7177,-1.7174,-1.7164,-1.7094,-1.7077,-1.7071,-1.7016,-1.7039,-1.7036,-1.7034,-1.7032,-1.6941,-1.6941,0,0,0,0,0,0,-1.735,-1.7334,-1.7239,-1.7234,-1.7288,-1.7227,-1.7216,-1.7196,-1.7138,-1.713,-1.7164,-1.7163,-1.7083,-1.7075,-1.7067,-1.7035,-1.7036,-1.7032,-1.703,-1.6941,-1.6941,-1.694,0,0,0,0,0,0,-1.7353,-1.7342,-1.7243,-1.7283,-1.727,-1.7225,-1.7201,-1.7194,-1.7176,-1.7129,-1.712,-1.7155,-1.7083,-1.7072,-1.7037,-1.7031,-1.703,-1.7027,-1.6941,-1.6941,-1.6941,-1.6968,0,0,0,0,0,0,-1.7356,-1.7343,-1.7332,-1.7283,-1.7268,-1.7214,-1.7201,-1.7192,-1.717,-1.7168,-1.7118,-1.711,-1.7082,-1.7042,-1.7033,-1.7026,-1.7024,-1.6941,-1.6941,-1.6941,-1.6968,-1.6969,-1.697,0,0,0,0,0,-1.7361,-1.7343,-1.7332,-1.7321,-1.7254,-1.7213,-1.7204,-1.7173,-1.717,-1.7159,-1.7129,-1.7111,-1.7033,-1.7039,-1.7028,-1.702,-1.6942,-1.6941,-1.6941,-1.6967,-1.6969,-1.697,0,0,0,0,0,0,-1.739,-1.7335,-1.7323,-1.7288,-1.7256,-1.7207,-1.7192,-1.7176,-1.7143,-1.7142,-1.7104,-1.7093,-1.7061,-1.7037,-1.7044,-1.6993,-1.6986,-1.6983,-1.701,-1.7011,-1.7012,-1.7019,-1.7021,0,0,0,0,0,-1.7393,-1.7365,-1.7318,-1.7292,-1.7277,-1.7238,-1.7218,-1.7198,-1.7162,-1.7148,-1.7115,-1.7081,-1.7049,-1.7029,-1.6996,-1.6964,-1.6954,-1.6954,-1.6955,-1.6956,-1.6954,-1.6937,-1.6937,-1.6939,-1.6939,-1.6939,0,0,-1.7397,-1.7364,-1.7348,-1.7297,-1.727,-1.7242,-1.7226,-1.7196,-1.7175,-1.7143,-1.7108,-1.7083,-1.7043,-1.7009,-1.6993,-1.6988,-1.6952,-1.6955,-1.6957,-1.6954,-1.6937,-1.6937,-1.6937,-1.6939,-1.6939,-1.6939,0,0,-1.7392,-1.7363,-1.7339,-1.7313,-1.7273,-1.7247,-1.7242,-1.7196,-1.7178,-1.7143,-1.7119,-1.7093,-1.7038,-1.7011,-1.699,-1.6978,-1.6961,-1.6969,-1.6975,-1.6959,-1.6959,-1.6959,-1.6955,-1.6955,-1.6967,-1.6967,-1.6967,0,-1.7402,-1.736,-1.7329,-1.7302,-1.728,-1.7252,-1.7228,-1.7203,-1.7154,-1.714,-1.7136,-1.7068,-1.7039,-1.7,-1.6997,-1.6981,-1.6974,-1.6974,-1.6961,-1.6961,-1.696,-1.6957,-1.6955,-1.6968,-1.6968,-1.6968,-1.6968,0,-1.7376,-1.7347,-1.7332,-1.7287,-1.7264,-1.7239,-1.7204,-1.7185,-1.7167,-1.7142,-1.7107,-1.7072,-1.7033,-1.7022,-1.7003,-1.6981,-1.6979,-1.6969,-1.6961,-1.6962,-1.6958,-1.6956,-1.697,-1.697,-1.6969,-1.6969,0,0,-1.7384,-1.7325,-1.732,-1.73,-1.7255,-1.7232,-1.7206,-1.7169,-1.7154,-1.7121,-1.7099,-1.7055,-1.7045,-1.7022,-1.7,-1.6986,-1.6981,-1.6977,-1.6976,-1.698,-1.6956,-1.6964,-1.6963,-1.6969,-1.6969,-1.6969,-1.696,0,-1.7373,-1.7325,-1.7298,-1.7262,-1.7236,-1.721,-1.7187,-1.7157,-1.7134,-1.7108,-1.7082,-1.7052,-1.7042,-1.7028,-1.7013,-1.6985,-1.6975,-1.6985,-1.6948,-1.6948,-1.696,-1.6961,-1.6969,-1.6962,-1.6958,-1.6957,-1.6957,0,-1.7352,-1.7323,-1.7285,-1.7245,-1.7233,-1.7213,-1.7179,-1.7154,-1.712,-1.7105,-1.708,-1.7059,-1.7031,-1.7026,-1.6988,-1.6995,-1.6979,-1.6963,-1.6962,-1.6957,-1.6952,-1.6957,-1.6959,-1.6958,-1.6954,-1.6954,-1.6955,0,-1.7364,-1.7314,-1.7286,-1.727,-1.7222,-1.7209,-1.7189,-1.7155,-1.7135,-1.7105,-1.7092,-1.7059,-1.7041,-1.7016,-1.6987,-1.6986,-1.6952,-1.6944,-1.6938,-1.6939,-1.6932,-1.6933,-1.6932,-1.6921,-1.6921,-1.6921,-1.6921,0,-1.7355,-1.7332,-1.7291,-1.7273,-1.7248,-1.7218,-1.7194,-1.7171,-1.7142,-1.712,-1.7095,-1.7074,-1.7037,-1.7012,-1.6989,-1.6962,-1.6954,-1.694,-1.6935,-1.6943,-1.6945,-1.6931,-1.6931,-1.6921,-1.6921,-1.6921,-1.6921,0,-1.7363,-1.7334,-1.7301,-1.726,-1.7249,-1.7233,-1.7197,-1.718,-1.7156,-1.7129,-1.712,-1.7083,-1.7053,-1.7022,-1.6981,-1.6965,-1.6939,-1.6931,-1.6951,-1.6948,-1.6944,-1.6945,-1.6935,-1.6933,-1.6923,-1.6923,-1.6924,0,-1.7359,-1.7342,-1.73,-1.7284,-1.7264,-1.7239,-1.722,-1.7189,-1.717,-1.7132,-1.7119,-1.7088,-1.706,-1.7014,-1.6983,-1.6952,-1.6943,-1.6942,-1.6938,-1.6947,-1.6944,-1.6945,-1.6944,-1.6943,-1.6943,-1.6943,-1.6943,0,-1.7355,-1.7343,-1.7316,-1.7286,-1.7265,-1.7239,-1.7212,-1.72,-1.7165,-1.7145,-1.7115,-1.7094,-1.7053,-1.7022,-1.6988,-1.6967,-1.6949,-1.6945,-1.6942,-1.695,-1.6963,-1.6957,-1.6955,-1.6945,-1.6945,-1.6945,-1.6945,-1.6945,-1.7358,-1.7342,-1.7311,-1.7283,-1.7261,-1.7237,-1.7219,-1.7195,-1.7169,-1.7134,-1.7118,-1.7088,-1.7056,-1.7009,-1.6988,-1.6965,-1.6959,-1.6955,-1.6954,-1.6953,-1.6956,-1.6967,-1.6958,-1.6958,-1.6958,-1.6958,-1.6958,0,-1.7354,-1.7333,-1.7308,-1.7273,-1.7252,-1.7239,-1.7209,-1.7192,-1.7166,-1.7139,-1.7114,-1.708,-1.7051,-1.7019,-1.6988,-1.6975,-1.6967,-1.6968,-1.6969,-1.6964,-1.6962,-1.6968,-1.6976,-1.6976,-1.6976,-1.6976,-1.6976,-1.6976,-1.7349,-1.7323,-1.7307,-1.727,-1.7249,-1.7221,-1.7205,-1.7183,-1.7162,-1.7126,-1.7102,-1.7082,-1.7053,-1.702,-1.6993,-1.6984,-1.6974,-1.6978,-1.6968,-1.6966,-1.6964,-1.6963,-1.6968,-1.6976,-1.6976,-1.6972,-1.6972,-1.6972]}]]